�������l�o���
Date,Time,MP-1(��Sv/h),MP-2(��Sv/h),MP-3(��Sv/h),MP-4(��Sv/h),MP-5(��Sv/h),MP-6(��Sv/h),MP-7(��Sv/h),MP-8(��Sv/h),����,����(m/s),���J
2017/12/17,00:00,0.905,1.495,0.939,1.769,1.196,0.500,0.885,0.845,���k��,9.3,��
2017/12/17,00:10,0.906,1.495,0.939,1.770,1.197,0.498,0.885,0.848,���k��,9.1,��
2017/12/17,00:20,0.903,1.494,0.941,1.768,1.200,0.499,0.884,0.846,���k��,10.7,��
2017/12/17,00:30,0.903,1.494,0.939,1.771,1.199,0.499,0.885,0.849,��,11.8,��
2017/12/17,00:40,0.903,1.494,0.941,1.772,1.200,0.500,0.884,0.848,���k��,14.4,��
2017/12/17,00:50,0.904,1.497,0.940,1.769,1.200,0.499,0.885,0.848,��,11.3,��
2017/12/17,01:00,0.904,1.492,0.940,1.774,1.199,0.499,0.885,0.847,��,13.3,��
2017/12/17,01:10,0.904,1.496,0.942,1.774,1.200,0.500,0.883,0.847,���k��,13.9,��
2017/12/17,01:20,0.905,1.494,0.942,1.772,1.200,0.499,0.886,0.845,��,12.7,��
2017/12/17,01:30,0.905,1.496,0.940,1.774,1.199,0.497,0.886,0.847,��,12.7,��
2017/12/17,01:40,0.903,1.494,0.940,1.771,1.202,0.498,0.887,0.847,���k��,12.5,��
2017/12/17,01:50,0.903,1.495,0.941,1.772,1.201,0.498,0.887,0.850,���k��,16.9,��
2017/12/17,02:00,0.905,1.495,0.942,1.774,1.201,0.499,0.885,0.847,��,13.6,��
2017/12/17,02:10,0.905,1.492,0.944,1.772,1.198,0.498,0.885,0.850,��,12.5,��
2017/12/17,02:20,0.902,1.495,0.941,1.773,1.200,0.499,0.884,0.849,���k��,12.4,��
2017/12/17,02:30,0.906,1.495,0.941,1.773,1.201,0.499,0.885,0.849,��,16.1,��
2017/12/17,02:40,0.906,1.497,0.941,1.774,1.200,0.499,0.883,0.848,���k��,14.4,��
2017/12/17,02:50,0.905,1.498,0.941,1.770,1.199,0.498,0.883,0.847,��,10.5,��
2017/12/17,03:00,0.905,1.496,0.940,1.774,1.201,0.499,0.884,0.848,��,11.6,��
2017/12/17,03:10,0.903,1.495,0.941,1.774,1.202,0.498,0.883,0.847,��,12.7,��
2017/12/17,03:20,0.903,1.494,0.939,1.770,1.200,0.497,0.882,0.848,��,11.4,��
2017/12/17,03:30,0.905,1.496,0.941,1.772,1.202,0.499,0.884,0.848,��,12.7,��
2017/12/17,03:40,0.900,1.496,0.942,1.773,1.201,0.498,0.884,0.846,��,13.1,��
2017/12/17,03:50,0.903,1.499,0.942,1.773,1.200,0.501,0.884,0.846,��,12.4,��
2017/12/17,04:00,0.904,1.496,0.940,1.776,1.200,0.497,0.885,0.850,��,14.1,��
2017/12/17,04:10,0.907,1.496,0.943,1.771,1.201,0.498,0.883,0.847,��,11.0,��
2017/12/17,04:20,0.902,1.495,0.940,1.773,1.199,0.498,0.884,0.847,���k��,10.8,��
2017/12/17,04:30,0.902,1.498,0.939,1.772,1.198,0.499,0.882,0.848,�k��,11.4,�L
2017/12/17,04:40,0.904,1.498,0.941,1.772,1.198,0.498,0.883,0.848,�k��,14.6,�L
2017/12/17,04:50,0.901,1.497,0.939,1.772,1.202,0.498,0.882,0.846,�k��,12.5,�L
2017/12/17,05:00,0.903,1.497,0.938,1.773,1.197,0.499,0.884,0.846,�k��,10.6,��
2017/12/17,05:10,0.900,1.494,0.939,1.769,1.197,0.497,0.882,0.847,�k�k��,9.1,��
2017/12/17,05:20,0.902,1.495,0.938,1.772,1.199,0.495,0.882,0.848,�k,6.1,��
2017/12/17,05:30,0.899,1.499,0.936,1.771,1.197,0.494,0.881,0.846,�k,8.2,��
2017/12/17,05:40,0.902,1.495,0.936,1.774,1.201,0.496,0.879,0.845,�k,7.5,��
2017/12/17,05:50,0.901,1.495,0.937,1.772,1.200,0.496,0.882,0.846,�k�k��,8.4,��
2017/12/17,06:00,0.899,1.494,0.938,1.772,1.197,0.498,0.884,0.843,�k�k��,9.1,��
2017/12/17,06:10,0.901,1.494,0.938,1.770,1.198,0.496,0.882,0.846,�k�k��,8.1,��
2017/12/17,06:20,0.900,1.494,0.938,1.770,1.195,0.494,0.881,0.843,�k�k��,7.1,��
2017/12/17,06:30,0.897,1.496,0.937,1.770,1.198,0.497,0.881,0.845,�k�k��,5.7,��
2017/12/17,06:40,0.898,1.494,0.937,1.769,1.199,0.496,0.880,0.846,�k�k��,7.1,��
2017/12/17,06:50,0.900,1.494,0.936,1.769,1.198,0.497,0.880,0.847,�k�k��,8.1,��
2017/12/17,07:00,0.900,1.493,0.937,1.771,1.198,0.496,0.880,0.846,�k��,8.8,��
2017/12/17,07:10,0.898,1.496,0.936,1.770,1.198,0.495,0.882,0.844,�k��,10.2,��
2017/12/17,07:20,0.900,1.496,0.939,1.770,1.197,0.496,0.881,0.847,�k��,13.1,��
2017/12/17,07:30,0.900,1.497,0.936,1.772,1.200,0.495,0.882,0.845,�k��,10.5,��
2017/12/17,07:40,0.901,1.496,0.937,1.769,1.199,0.495,0.881,0.846,���k��,11.6,��
2017/12/17,07:50,0.902,1.497,0.937,1.771,1.198,0.496,0.881,0.846,���k��,11.9,��
2017/12/17,08:00,0.898,1.497,0.941,1.770,1.197,0.497,0.880,0.845,���k��,10.8,��
2017/12/17,08:10,0.900,1.496,0.938,1.772,1.197,0.495,0.883,0.846,�k��,9.6,��
2017/12/17,08:20,0.899,1.496,0.937,1.774,1.196,0.496,0.883,0.846,�k��,7.6,��
2017/12/17,08:30,0.901,1.496,0.937,1.771,1.199,0.496,0.882,0.845,�k��,8.8,��
2017/12/17,08:40,0.903,1.498,0.935,1.769,1.200,0.496,0.882,0.848,�k��,10.2,��
2017/12/17,08:50,0.899,1.497,0.938,1.772,1.197,0.496,0.882,0.844,�k��,7.6,��
2017/12/17,09:00,0.900,1.500,0.940,1.773,1.199,0.495,0.881,0.846,�k��,7.7,��
2017/12/17,09:10,0.902,1.497,0.938,1.772,1.199,0.498,0.881,0.847,�k��,7.1,��
2017/12/17,09:20,0.901,1.500,0.940,1.772,1.198,0.497,0.882,0.847,�k��,9.0,��
2017/12/17,09:30,0.904,1.499,0.939,1.771,1.196,0.496,0.882,0.846,�k��,7.8,��
2017/12/17,09:40,0.901,1.500,0.936,1.772,1.201,0.495,0.882,0.848,�k��,8.2,��
2017/12/17,09:50,0.902,1.498,0.940,1.772,1.197,0.496,0.882,0.846,�k��,8.0,��
2017/12/17,10:00,0.901,1.499,0.939,1.771,1.198,0.496,0.881,0.845,�k��,9.0,��
2017/12/17,10:10,0.901,1.499,0.939,1.772,1.199,0.496,0.879,0.846,�k�k��,8.5,��
2017/12/17,10:20,0.902,1.497,0.939,1.772,1.199,0.495,0.880,0.845,�k��,8.7,��
2017/12/17,10:30,0.904,1.495,0.939,1.771,1.199,0.496,0.880,0.847,�k��,8.4,��
2017/12/17,10:40,0.903,1.497,0.940,1.773,1.200,0.497,0.879,0.846,�k��,8.6,��
2017/12/17,10:50,0.899,1.496,0.937,1.770,1.199,0.496,0.881,0.846,�k��,8.6,��
2017/12/17,11:00,0.901,1.495,0.938,1.772,1.200,0.497,0.883,0.846,�k��,9.5,��
2017/12/17,11:10,0.902,1.494,0.939,1.770,1.204,0.496,0.880,0.846,���k��,10.2,�L
2017/12/17,11:20,0.902,1.498,0.940,1.773,1.201,0.498,0.879,0.847,�k��,9.1,�L
2017/12/17,11:30,0.904,1.498,0.940,1.773,1.201,0.498,0.884,0.846,�k��,8.9,�L
2017/12/17,11:40,0.903,1.500,0.940,1.774,1.202,0.500,0.881,0.845,�k��,8.6,�L
2017/12/17,11:50,0.902,1.499,0.941,1.773,1.201,0.499,0.881,0.847,�k��,7.5,�L
2017/12/17,12:00,0.901,1.500,0.942,1.775,1.204,0.500,0.882,0.848,�k��,6.5,��
2017/12/17,12:10,0.904,1.498,0.942,1.773,1.198,0.498,0.880,0.845,�k��,6.4,��
2017/12/17,12:20,0.902,1.500,0.943,1.773,1.202,0.497,0.883,0.846,�k��,8.7,��
2017/12/17,12:30,0.902,1.499,0.940,1.772,1.201,0.499,0.881,0.847,���k��,5.3,��
2017/12/17,12:40,0.902,1.498,0.938,1.775,1.202,0.498,0.879,0.849,�k��,7.8,�L
2017/12/17,12:50,0.901,1.499,0.942,1.774,1.200,0.499,0.880,0.847,���k��,6.9,��
2017/12/17,13:00,0.902,1.500,0.942,1.774,1.201,0.501,0.879,0.846,�k��,5.4,�L
2017/12/17,13:10,0.902,1.499,0.941,1.772,1.201,0.499,0.880,0.847,���k��,5.4,��
2017/12/17,13:20,0.903,1.499,0.939,1.775,1.201,0.497,0.881,0.846,���k��,4.3,��
2017/12/17,13:30,0.903,1.498,0.941,1.773,1.199,0.497,0.882,0.846,�k��,2.0,��
2017/12/17,13:40,0.902,1.499,0.940,1.774,1.197,0.498,0.880,0.848,�k�k��,3.2,��
2017/12/17,13:50,0.903,1.498,0.939,1.773,1.200,0.496,0.881,0.845,�k��,5.6,��
2017/12/17,14:00,0.902,1.496,0.940,1.771,1.199,0.496,0.881,0.848,�k��,4.8,��
2017/12/17,14:10,0.903,1.498,0.941,1.772,1.202,0.495,0.881,0.844,�k�k��,5.1,��
2017/12/17,14:20,0.904,1.498,0.939,1.770,1.199,0.494,0.882,0.846,�k��,4.8,��
2017/12/17,14:30,0.901,1.499,0.937,1.773,1.198,0.497,0.881,0.845,�k�k��,5.5,��
2017/12/17,14:40,0.904,1.498,0.938,1.768,1.199,0.495,0.879,0.846,�k��,3.5,��
2017/12/17,14:50,0.898,1.501,0.937,1.772,1.201,0.495,0.881,0.846,�k,4.2,��
2017/12/17,15:00,0.901,1.499,0.938,1.770,1.199,0.496,0.881,0.846,�k�k��,3.7,��
2017/12/17,15:10,0.900,1.498,0.938,1.771,1.200,0.495,0.880,0.847,�k,3.3,��
2017/12/17,15:20,0.901,1.496,0.938,1.771,1.201,0.494,0.881,0.846,�k�k��,2.6,��
2017/12/17,15:30,0.901,1.495,0.936,1.771,1.200,0.495,0.880,0.847,�k,3.6,��
2017/12/17,15:40,0.902,1.500,0.940,1.770,1.199,0.492,0.880,0.844,�k�k��,2.8,��
2017/12/17,15:50,0.901,1.498,0.939,1.774,1.200,0.495,0.880,0.846,�k��,1.5,�L
2017/12/17,16:00,0.904,1.495,0.939,1.769,1.201,0.494,0.879,0.845,�k��,1.2,��
2017/12/17,16:10,0.902,1.497,0.939,1.771,1.198,0.494,0.879,0.845,�k��,1.2,�L
2017/12/17,16:20,0.902,1.496,0.940,1.771,1.198,0.495,0.879,0.844,�k�k��,1.8,��
2017/12/17,16:30,0.900,1.496,0.938,1.772,1.199,0.493,0.879,0.844,�k�k��,2.5,��
2017/12/17,16:40,0.897,1.494,0.940,1.770,1.198,0.495,0.879,0.844,�k�k��,2.6,��
2017/12/17,16:50,0.900,1.497,0.937,1.769,1.200,0.494,0.879,0.845,�k�k��,2.0,��
2017/12/17,17:00,0.901,1.499,0.937,1.774,1.199,0.495,0.880,0.843,�k�k��,0.9,��
2017/12/17,17:10,0.897,1.498,0.937,1.768,1.195,0.494,0.879,0.845,�k,2.3,��
2017/12/17,17:20,0.899,1.496,0.935,1.768,1.196,0.492,0.877,0.844,�k�k��,1.9,��
2017/12/17,17:30,0.898,1.496,0.938,1.768,1.197,0.492,0.879,0.842,�k��,1.2,��
2017/12/17,17:40,0.898,1.496,0.937,1.770,1.195,0.494,0.878,0.843,��쓌,1.5,��
2017/12/17,17:50,0.897,1.495,0.935,1.768,1.196,0.493,0.875,0.842,��쓌,0.9,��
2017/12/17,18:00,0.899,1.496,0.938,1.769,1.195,0.493,0.877,0.844,�k�k��,3.1,��
2017/12/17,18:10,0.899,1.495,0.934,1.765,1.197,0.493,0.877,0.843,�k�k��,2.5,��
2017/12/17,18:20,0.898,1.499,0.937,1.767,1.197,0.494,0.878,0.844,�k��,2.8,��
2017/12/17,18:30,0.896,1.496,0.936,1.768,1.196,0.492,0.877,0.843,�k��,3.6,��
2017/12/17,18:40,0.897,1.494,0.936,1.767,1.197,0.493,0.876,0.844,���k��,2.6,��
2017/12/17,18:50,0.899,1.496,0.936,1.769,1.198,0.493,0.877,0.844,�k��,3.0,��
2017/12/17,19:00,0.900,1.495,0.935,1.765,1.195,0.493,0.877,0.843,�k��,2.3,��
2017/12/17,19:10,0.896,1.494,0.934,1.768,1.197,0.494,0.878,0.845,���k��,2.3,��
2017/12/17,19:20,0.898,1.494,0.935,1.767,1.199,0.493,0.878,0.842,��,2.2,��
2017/12/17,19:30,0.894,1.496,0.934,1.766,1.197,0.494,0.876,0.843,��,2.0,��
2017/12/17,19:40,0.897,1.495,0.934,1.767,1.196,0.493,0.877,0.843,���쐼,1.4,��
2017/12/17,19:50,0.899,1.496,0.934,1.765,1.199,0.493,0.879,0.842,���k��,0.9,��
2017/12/17,20:00,0.896,1.495,0.936,1.769,1.196,0.491,0.876,0.842,�k�k��,0.8,��
2017/12/17,20:10,0.896,1.493,0.933,1.768,1.194,0.493,0.875,0.843,���k��,1.4,��
2017/12/17,20:20,0.895,1.496,0.934,1.769,1.195,0.492,0.876,0.843,��,1.2,��
2017/12/17,20:30,0.898,1.495,0.935,1.764,1.195,0.493,0.876,0.843,��,2.8,��
2017/12/17,20:40,0.897,1.493,0.934,1.768,1.194,0.493,0.877,0.843,��,2.9,��
2017/12/17,20:50,0.895,1.493,0.932,1.767,1.196,0.492,0.878,0.842,��,3.7,��
2017/12/17,21:00,0.895,1.491,0.934,1.766,1.195,0.494,0.876,0.841,��,3.9,��
2017/12/17,21:10,0.898,1.493,0.932,1.764,1.196,0.493,0.878,0.841,��,4.3,��
2017/12/17,21:20,0.897,1.494,0.931,1.768,1.197,0.492,0.877,0.843,���쐼,5.4,��
2017/12/17,21:30,0.895,1.495,0.934,1.766,1.193,0.492,0.876,0.843,��,5.6,��
2017/12/17,21:40,0.898,1.494,0.933,1.765,1.196,0.493,0.877,0.844,���쐼,5.6,��
2017/12/17,21:50,0.896,1.494,0.933,1.767,1.196,0.492,0.878,0.842,���쐼,5.5,��
2017/12/17,22:00,0.894,1.492,0.934,1.766,1.194,0.493,0.874,0.843,��,5.4,��
2017/12/17,22:10,0.894,1.494,0.933,1.765,1.194,0.493,0.876,0.843,��,4.9,��
2017/12/17,22:20,0.896,1.494,0.934,1.765,1.194,0.493,0.878,0.843,���쐼,3.8,��
2017/12/17,22:30,0.895,1.494,0.933,1.768,1.194,0.493,0.875,0.843,��,4.0,��
2017/12/17,22:40,0.897,1.492,0.934,1.765,1.194,0.492,0.877,0.843,���쐼,3.0,��
2017/12/17,22:50,0.894,1.496,0.933,1.766,1.196,0.491,0.877,0.842,��,2.3,��
2017/12/17,23:00,0.897,1.492,0.933,1.766,1.192,0.493,0.876,0.843,���k��,1.7,��
2017/12/17,23:10,0.897,1.495,0.932,1.764,1.194,0.491,0.876,0.843,���k��,2.0,��
2017/12/17,23:20,0.897,1.493,0.934,1.764,1.193,0.492,0.873,0.843,���k��,2.8,��
2017/12/17,23:30,0.897,1.491,0.932,1.763,1.194,0.490,0.877,0.842,���k��,2.3,��
2017/12/17,23:40,0.897,1.496,0.933,1.764,1.191,0.491,0.878,0.841,���k��,2.5,��
2017/12/17,23:50,0.897,1.491,0.933,1.765,1.193,0.490,0.874,0.840,��,2.3,��
